Weather History for Valparaiso, FL

Change the Weather History Date:

Wednesday, March 20, 2013

  Actual Average Record
Temperature  
Mean Temperature 56 °F -  
Max Temperature 67 °F 72 °F 86 °F (1989)
Min Temperature 43 °F 48 °F 30 °F (1960)
Degree Days  
Heating Degree Days 9    
Growing Degree Days 6 (Base 50)    
Moisture  
Dew Point 33 °F    
Average Humidity 39    
Maximum Humidity 66    
Minimum Humidity 26    
Precipitation  
Precipitation 0.00 in - - ()
Sea Level Pressure  
Sea Level Pressure 30.03 in    
Wind  
Wind Speed 11 mph (North)    
Max Wind Speed 16 mph    
Max Gust Speed 22 mph    
Visibility 10 miles    
Events Rain    
Averages and records for this station are not official NWS values.
T = Trace of Precipitation, MM = Missing Value Source: NWS Daily Summary

Daily Weather History Graph

Daily Weather History Graph

Search for Another Location

Airport:

Trip Planner

Search our weather history database for the weather conditions in past years. The results will help you decide how hot, cold, wet, or windy it might be!

Date:

Astronomy

Mar. 20, 2013 Rise Set
Actual Time 6:49 AM CDT 6:57 PM CDT
Civil Twilight 6:25 AM CDT 7:21 PM CDT
Nautical Twilight 5:57 AM CDT 7:49 PM CDT
Astronomical Twilight 5:29 AM CDT 8:17 PM CDT
Moon 12:54 PM CDT (3/20) 2:06 AM CDT (3/20)
Length of Visible Light 12h 56m
Length of Day
12h 08m
First Quarter, 59% of the Moon is Illuminated
Mar 20
First Quarter
Mar 27
Full
Apr 2
Last Quarter
Apr 10
New
Apr 18
First Quarter

Hourly Weather History & Observations

Time (CDT) Temp. Windchill Dew Point Humidity Pressure Visibility Wind Dir Wind Speed Gust Speed Precip Events Conditions
12:55 AM 58.5 °F - 43.7 °F 58% 30.00 in 10.0 mi North 8.1 mph - N/A   Mostly Cloudy
1:55 AM 60.6 °F - 38.1 °F 43% 30.00 in 10.0 mi NNE 12.7 mph - N/A   Mostly Cloudy
2:55 AM 61.0 °F - 35.1 °F 38% 29.98 in 10.0 mi NE 12.7 mph - N/A   Mostly Cloudy
4:55 AM 60.4 °F - 32.2 °F 35% 29.99 in 10.0 mi ENE 15.0 mph - N/A   Mostly Cloudy
5:55 AM 59.4 °F - 33.3 °F 37% 30.03 in 10.0 mi NNE 9.2 mph - N/A   Mostly Cloudy
6:36 AM 57.2 °F - 33.8 °F 41% 30.04 in 10.0 mi NNE 10.4 mph - N/A   Overcast
6:55 AM 57.2 °F - 34.3 °F 42% 30.06 in 10.0 mi NNE 13.8 mph - N/A   Overcast
7:55 AM 56.8 °F - 33.4 °F 41% 30.09 in 10.0 mi NNE 16.1 mph - N/A   Mostly Cloudy
8:55 AM 59.2 °F - 32.0 °F 36% 30.08 in 10.0 mi NNE 15.0 mph - N/A   Mostly Cloudy
9:26 AM 60.8 °F - 30.2 °F 31% 30.06 in 10.0 mi NE 15.0 mph 21.9 mph N/A   Mostly Cloudy
9:56 AM 62.4 °F - 29.1 °F 28% 30.07 in 10.0 mi NE 16.1 mph 21.9 mph N/A   Mostly Cloudy
10:55 AM 63.0 °F - 30.0 °F 29% 30.07 in 10.0 mi NNE 16.1 mph - N/A   Mostly Cloudy
11:55 AM 64.0 °F - 30.6 °F 28% 30.06 in 10.0 mi NE 9.2 mph - N/A   Overcast
12:55 PM 64.8 °F - 30.2 °F 27% 30.04 in 10.0 mi NNE 8.1 mph - N/A   Overcast
1:08 PM 64.4 °F - 32.0 °F 30% 30.03 in 10.0 mi NNW 6.9 mph - N/A Rain Light Rain
1:34 PM 62.6 °F - 35.6 °F 37% 30.04 in 10.0 mi NNW 6.9 mph - N/A   Overcast
1:55 PM 63.7 °F - 35.2 °F 35% 30.01 in 10.0 mi North 4.6 mph - 0.00 in   Overcast
2:55 PM 63.5 °F - 33.8 °F 33% 30.02 in 10.0 mi North 12.7 mph 18.4 mph N/A   Overcast
3:55 PM 65.5 °F - 33.3 °F 30% 29.99 in 10.0 mi North 9.2 mph - N/A   Mostly Cloudy
4:55 PM 66.9 °F - 32.7 °F 28% 30.00 in 10.0 mi North 12.7 mph - N/A   Partly Cloudy
5:58 PM 65.8 °F - 30.2 °F 26% 29.98 in 10.0 mi NNW 12.7 mph - N/A   Partly Cloudy
6:57 PM 60.6 °F - 30.6 °F 32% 29.99 in 10.0 mi NNW 5.8 mph - N/A   Partly Cloudy
7:55 PM 55.0 °F - 31.5 °F 41% 30.01 in 10.0 mi NNW 5.8 mph - N/A   Clear
8:55 PM 52.0 °F - 31.6 °F 46% 30.03 in 10.0 mi NW 6.9 mph - N/A   Clear
9:55 PM 51.6 °F - 30.0 °F 44% 30.03 in 10.0 mi NNW 4.6 mph - N/A   Clear
10:55 PM 46.9 °F - 34.2 °F 61% 30.01 in 10.0 mi WNW 4.6 mph - N/A   Clear
10:56 PM 46.4 °F 44.3 °F 33.8 °F 62% 30.01 in 10.0 mi NNW 4.6 mph - N/A   Clear
11:55 PM 43.9 °F 40.5 °F 33.3 °F 66% 30.03 in 10.0 mi WNW 5.8 mph - N/A   Clear